Time,TemperatureF,DewpointF,PressureIn,WindDirection,WindDirectionDegrees,WindSpeedMPH,WindSpeedGustMPH,Humidity,HourlyPrecipIn,Conditions,Clouds,dailyrainin,SoftwareType,DateUTC
2013-04-01 00:05:00,53.1,42.1,29.92,North,353,4.0,6.0,11,0.00,,,0.00,meteohub,2013-04-01 05:05:00,
2013-04-01 00:10:00,52.9,42.1,29.92,NNW,344,4.0,8.0,11,0.00,,,0.00,meteohub,2013-04-01 05:10:00,
2013-04-01 00:15:00,52.7,42.1,29.95,NNW,342,4.0,8.0,11,0.00,,,0.00,meteohub,2013-04-01 05:15:00,
2013-04-01 00:20:00,52.5,41.9,29.95,NNE,15,4.0,8.0,11,0.00,,,0.00,meteohub,2013-04-01 05:20:00,
2013-04-01 00:25:00,52.2,41.9,29.95,North,353,3.0,7.0,11,0.00,,,0.00,meteohub,2013-04-01 05:25:00,
2013-04-01 00:31:00,51.6,41.9,29.95,North,350,2.0,6.0,11,0.00,,,0.00,meteohub,2013-04-01 05:31:00,
2013-04-01 00:36:00,51.3,41.7,29.95,NNW,344,8.0,8.0,11,0.00,,,0.00,meteohub,2013-04-01 05:36:00,
2013-04-01 00:41:00,51.3,41.7,29.95,NE,46,8.0,9.0,11,0.00,,,0.00,meteohub,2013-04-01 05:41:00,
2013-04-01 00:47:00,51.1,41.7,29.95,NNE,28,6.0,10.0,11,0.00,,,0.00,meteohub,2013-04-01 05:47:00,
2013-04-01 00:52:00,50.7,41.5,29.95,North,3,4.0,10.0,11,0.00,,,0.00,meteohub,2013-04-01 05:52:00,
2013-04-01 00:57:00,50.4,41.5,29.98,North,10,4.0,10.0,11,0.00,,,0.00,meteohub,2013-04-01 05:57:00,
2013-04-01 01:02:00,49.8,41.5,29.98,NNE,13,5.0,9.0,11,0.00,,,0.00,meteohub,2013-04-01 06:02:00,
2013-04-01 01:07:00,49.3,41.5,29.98,NNW,344,6.0,7.0,11,0.00,,,0.00,meteohub,2013-04-01 06:07:00,
2013-04-01 01:13:00,49.3,41.4,29.98,North,5,9.0,11.0,11,0.00,,,0.00,meteohub,2013-04-01 06:13:00,
2013-04-01 01:18:00,49.3,41.4,29.98,NNE,26,6.0,11.0,11,0.00,,,0.00,meteohub,2013-04-01 06:18:00,
2013-04-01 01:23:00,48.9,40.6,29.98,NNE,16,4.0,11.0,11,0.00,,,0.00,meteohub,2013-04-01 06:23:00,
2013-04-01 01:28:00,48.7,40.5,29.98,NNE,16,6.0,10.0,11,0.00,,,0.00,meteohub,2013-04-01 06:28:00,
2013-04-01 01:33:00,48.6,40.5,29.98,North,0,8.0,11.0,11,0.00,,,0.00,meteohub,2013-04-01 06:33:00,
2013-04-01 01:38:00,48.4,40.5,29.98,North,353,9.0,11.0,11,0.00,,,0.00,meteohub,2013-04-01 06:38:00,
2013-04-01 01:43:00,48.2,40.3,29.95,NNE,19,10.0,11.0,11,0.00,,,0.00,meteohub,2013-04-01 06:43:00,
2013-04-01 01:48:00,48.0,40.3,29.95,North,0,7.0,12.0,12,0.00,,,0.00,meteohub,2013-04-01 06:48:00,
2013-04-01 01:54:00,47.8,40.3,29.95,North,0,6.0,12.0,12,0.00,,,0.00,meteohub,2013-04-01 06:54:00,
2013-04-01 01:59:00,47.7,40.3,29.95,North,353,6.0,12.0,12,0.00,,,0.00,meteohub,2013-04-01 06:59:00,
2013-04-01 02:04:00,47.3,40.3,29.98,North,353,4.0,11.0,12,0.00,,,0.00,meteohub,2013-04-01 07:04:00,
2013-04-01 02:09:00,46.9,40.3,29.98,North,353,6.0,11.0,12,0.00,,,0.00,meteohub,2013-04-01 07:09:00,
2013-04-01 02:14:00,46.6,40.1,30.01,North,357,5.0,11.0,12,0.00,,,0.00,meteohub,2013-04-01 07:14:00,
2013-04-01 02:20:00,46.6,40.1,30.01,NNE,12,8.0,9.0,12,0.00,,,0.00,meteohub,2013-04-01 07:20:00,
2013-04-01 02:25:00,46.4,40.1,30.01,North,8,8.0,11.0,12,0.00,,,0.00,meteohub,2013-04-01 07:25:00,
2013-04-01 02:30:00,46.4,39.9,30.01,NNE,15,4.0,11.0,12,0.00,,,0.00,meteohub,2013-04-01 07:30:00,
2013-04-01 02:35:00,46.2,39.9,30.01,NNE,19,6.0,9.0,12,0.00,,,0.00,meteohub,2013-04-01 07:35:00,
2013-04-01 02:40:00,46.0,39.9,30.01,North,10,6.0,8.0,12,0.00,,,0.00,meteohub,2013-04-01 07:40:00,
2013-04-01 02:45:00,46.0,39.7,30.01,North,7,4.0,9.0,12,0.00,,,0.00,meteohub,2013-04-01 07:45:00,
2013-04-01 02:51:00,45.9,39.7,30.01,NNE,26,6.0,9.0,12,0.00,,,0.00,meteohub,2013-04-01 07:51:00,
2013-04-01 02:56:00,45.7,39.7,30.01,ENE,57,8.0,9.0,12,0.00,,,0.00,meteohub,2013-04-01 07:56:00,
2013-04-01 03:02:00,45.3,39.6,30.01,NNE,18,13.0,13.0,12,0.00,,,0.00,meteohub,2013-04-01 08:02:00,
2013-04-01 03:07:00,45.1,39.6,30.01,North,357,6.0,15.0,12,0.00,,,0.00,meteohub,2013-04-01 08:07:00,
2013-04-01 03:12:00,45.0,39.6,30.04,NNW,337,9.0,16.0,12,0.00,,,0.00,meteohub,2013-04-01 08:12:00,
2013-04-01 03:17:00,44.8,39.4,30.04,North,353,4.0,16.0,12,0.00,,,0.00,meteohub,2013-04-01 08:17:00,
2013-04-01 03:23:00,44.4,39.4,30.04,NNE,26,6.0,13.0,13,0.00,,,0.00,meteohub,2013-04-01 08:23:00,
2013-04-01 03:28:00,44.2,39.4,30.04,North,8,6.0,13.0,13,0.00,,,0.00,meteohub,2013-04-01 08:28:00,
2013-04-01 03:33:00,44.1,39.2,30.04,NNE,25,8.0,10.0,13,0.00,,,0.00,meteohub,2013-04-01 08:33:00,
2013-04-01 03:38:00,44.1,39.2,30.04,North,3,9.0,10.0,13,0.00,,,0.00,meteohub,2013-04-01 08:38:00,
2013-04-01 03:43:00,44.1,39.2,30.04,ENE,68,6.0,11.0,13,0.00,,,0.00,meteohub,2013-04-01 08:43:00,
2013-04-01 03:49:00,43.9,39.0,30.04,NNW,339,5.0,11.0,13,0.00,,,0.00,meteohub,2013-04-01 08:49:00,
2013-04-01 03:54:00,43.7,39.0,30.04,NW,326,9.0,10.0,13,0.00,,,0.00,meteohub,2013-04-01 08:54:00,
2013-04-01 03:59:00,43.7,39.0,30.04,North,3,6.0,10.0,13,0.00,,,0.00,meteohub,2013-04-01 08:59:00,
2013-04-01 04:04:00,43.5,39.0,30.04,NNE,20,6.0,11.0,13,0.00,,,0.00,meteohub,2013-04-01 09:04:00,
2013-04-01 04:09:00,43.5,39.0,30.04,NNE,17,9.0,11.0,13,0.00,,,0.00,meteohub,2013-04-01 09:09:00,
2013-04-01 04:14:00,43.3,39.0,30.04,NNW,344,5.0,11.0,13,0.00,,,0.00,meteohub,2013-04-01 09:14:00,
2013-04-01 04:20:00,43.3,38.8,30.04,North,357,8.0,10.0,13,0.00,,,0.00,meteohub,2013-04-01 09:20:00,
2013-04-01 04:25:00,43.2,38.8,30.04,North,357,5.0,11.0,13,0.00,,,0.00,meteohub,2013-04-01 09:25:00,
2013-04-01 04:30:00,43.0,38.8,30.04,North,0,8.0,11.0,13,0.00,,,0.00,meteohub,2013-04-01 09:30:00,
2013-04-01 04:35:00,42.8,38.7,30.04,NNE,14,4.0,8.0,13,0.00,,,0.00,meteohub,2013-04-01 09:35:00,
2013-04-01 04:40:00,42.6,38.7,30.04,North,0,8.0,8.0,13,0.00,,,0.00,meteohub,2013-04-01 09:40:00,
2013-04-01 04:46:00,42.6,38.7,30.06,North,10,8.0,10.0,13,0.00,,,0.00,meteohub,2013-04-01 09:46:00,
2013-04-01 04:51:00,42.8,38.5,30.06,NNE,14,6.0,10.0,13,0.00,,,0.00,meteohub,2013-04-01 09:51:00,
2013-04-01 04:56:00,42.6,38.5,30.06,North,353,6.0,11.0,13,0.00,,,0.00,meteohub,2013-04-01 09:56:00,
2013-04-01 05:01:00,42.4,38.5,30.06,NNE,17,8.0,11.0,13,0.00,,,0.00,meteohub,2013-04-01 10:01:00,
2013-04-01 05:07:00,42.3,38.5,30.06,NNE,23,5.0,8.0,13,0.00,,,0.00,meteohub,2013-04-01 10:07:00,
2013-04-01 05:12:00,42.3,38.3,30.06,NE,35,5.0,8.0,13,0.00,,,0.00,meteohub,2013-04-01 10:12:00,
2013-04-01 05:18:00,42.1,38.3,30.06,North,8,6.0,8.0,13,0.00,,,0.00,meteohub,2013-04-01 10:18:00,
2013-04-01 05:23:00,42.1,38.3,30.06,North,0,6.0,8.0,13,0.00,,,0.00,meteohub,2013-04-01 10:23:00,
2013-04-01 05:28:00,41.9,38.1,30.06,North,357,7.0,8.0,13,0.00,,,0.00,meteohub,2013-04-01 10:28:00,
2013-04-01 05:33:00,41.7,38.1,30.06,NNE,16,4.0,8.0,13,0.00,,,0.00,meteohub,2013-04-01 10:33:00,
2013-04-01 05:39:00,41.7,38.1,30.06,NNW,337,6.0,8.0,13,0.00,,,0.00,meteohub,2013-04-01 10:39:00,
2013-04-01 05:44:00,41.5,37.9,30.09,North,9,4.0,8.0,13,0.00,,,0.00,meteohub,2013-04-01 10:44:00,
2013-04-01 05:49:00,41.0,37.9,30.09,NNW,344,8.0,8.0,13,0.00,,,0.00,meteohub,2013-04-01 10:49:00,
2013-04-01 05:55:00,41.0,37.9,30.09,NNW,340,2.0,8.0,13,0.00,,,0.00,meteohub,2013-04-01 10:55:00,
2013-04-01 06:00:00,41.0,37.8,30.09,North,353,5.0,8.0,13,0.00,,,0.00,meteohub,2013-04-01 11:00:00,
2013-04-01 06:05:00,41.0,37.8,30.09,North,4,6.0,9.0,13,0.00,,,0.00,meteohub,2013-04-01 11:05:00,
2013-04-01 06:10:00,41.0,37.8,30.09,North,7,6.0,9.0,13,0.00,,,0.00,meteohub,2013-04-01 11:10:00,
2013-04-01 06:16:00,40.8,37.6,30.09,NE,47,5.0,11.0,13,0.00,,,0.00,meteohub,2013-04-01 11:16:00,
2013-04-01 06:21:00,40.8,37.6,30.09,North,353,5.0,11.0,13,0.00,,,0.00,meteohub,2013-04-01 11:21:00,
2013-04-01 06:26:00,40.8,37.6,30.12,NNW,345,6.0,10.0,13,0.00,,,0.00,meteohub,2013-04-01 11:26:00,
2013-04-01 06:32:00,40.8,37.6,30.12,North,11,6.0,9.0,13,0.00,,,0.00,meteohub,2013-04-01 11:32:00,
2013-04-01 06:37:00,40.6,37.6,30.12,North,4,4.0,9.0,13,0.00,,,0.00,meteohub,2013-04-01 11:37:00,
2013-04-01 06:42:00,40.3,37.6,30.09,NNE,28,6.0,9.0,13,0.00,,,0.00,meteohub,2013-04-01 11:42:00,
2013-04-01 06:48:00,40.1,37.4,30.09,NNW,346,6.0,8.0,13,0.00,,,0.00,meteohub,2013-04-01 11:48:00,
2013-04-01 06:53:00,39.9,37.4,30.09,North,353,5.0,8.0,13,0.00,,,0.00,meteohub,2013-04-01 11:53:00,
2013-04-01 06:58:00,39.9,37.2,30.12,NNE,18,6.0,8.0,13,0.00,,,0.00,meteohub,2013-04-01 11:58:00,
2013-04-01 07:03:00,39.9,37.2,30.12,North,10,6.0,9.0,13,0.00,,,0.00,meteohub,2013-04-01 12:03:00,
2013-04-01 07:08:00,39.9,37.2,30.12,NNE,28,6.0,9.0,13,0.00,,,0.00,meteohub,2013-04-01 12:08:00,
2013-04-01 07:14:00,39.7,37.2,30.12,NNE,17,5.0,8.0,13,0.00,,,0.00,meteohub,2013-04-01 12:14:00,
2013-04-01 07:19:00,39.4,37.2,30.12,NNE,21,6.0,10.0,13,0.00,,,0.00,meteohub,2013-04-01 12:19:00,
2013-04-01 07:24:00,39.4,37.0,30.12,NE,54,4.0,10.0,13,0.00,,,0.00,meteohub,2013-04-01 12:24:00,
2013-04-01 07:29:00,39.2,37.0,30.15,NNE,27,4.0,10.0,13,0.00,,,0.00,meteohub,2013-04-01 12:29:00,
2013-04-01 07:35:00,39.2,37.0,30.15,North,3,3.0,9.0,13,0.00,,,0.00,meteohub,2013-04-01 12:35:00,
2013-04-01 07:40:00,39.2,37.0,30.15,NNE,26,5.0,9.0,13,0.00,,,0.00,meteohub,2013-04-01 12:40:00,
2013-04-01 07:45:00,39.4,37.0,30.15,NNE,12,5.0,9.0,13,0.00,,,0.00,meteohub,2013-04-01 12:45:00,
2013-04-01 07:51:00,39.4,37.4,30.15,NNE,33,6.0,9.0,13,0.00,,,0.00,meteohub,2013-04-01 12:51:00,
2013-04-01 07:56:00,39.6,37.8,30.15,NNW,334,6.0,8.0,13,0.00,,,0.00,meteohub,2013-04-01 12:56:00,
2013-04-01 08:01:00,39.7,38.3,30.15,North,1,6.0,8.0,13,0.00,,,0.00,meteohub,2013-04-01 13:01:00,
2013-04-01 08:06:00,39.7,38.8,30.15,NNE,15,6.0,11.0,13,0.00,,,0.00,meteohub,2013-04-01 13:06:00,
2013-04-01 08:12:00,39.9,38.3,30.15,North,11,3.0,11.0,13,0.00,,,0.00,meteohub,2013-04-01 13:12:00,
2013-04-01 08:17:00,39.9,38.3,30.15,NNE,31,6.0,11.0,13,0.00,,,0.00,meteohub,2013-04-01 13:17:00,
2013-04-01 08:22:00,39.9,38.8,30.15,NNW,341,4.0,9.0,13,0.00,,,0.00,meteohub,2013-04-01 13:22:00,
2013-04-01 08:27:00,39.9,38.7,30.15,North,353,6.0,9.0,13,0.00,,,0.00,meteohub,2013-04-01 13:27:00,
2013-04-01 08:32:00,39.9,38.8,30.15,North,0,9.0,9.0,13,0.00,,,0.00,meteohub,2013-04-01 13:32:00,
2013-04-01 08:38:00,39.9,38.7,30.15,NNE,16,9.0,9.0,13,0.00,,,0.00,meteohub,2013-04-01 13:38:00,
2013-04-01 08:43:00,39.9,39.0,30.15,North,353,8.0,11.0,13,0.00,,,0.00,meteohub,2013-04-01 13:43:00,
2013-04-01 08:48:00,39.9,38.8,30.15,NNE,18,4.0,11.0,13,0.00,,,0.00,meteohub,2013-04-01 13:48:00,
2013-04-01 08:53:00,39.9,38.7,30.15,North,0,5.0,10.0,13,0.00,,,0.00,meteohub,2013-04-01 13:53:00,
2013-04-01 08:58:00,40.1,38.5,30.18,NNW,327,6.0,10.0,13,0.00,,,0.00,meteohub,2013-04-01 13:58:00,
2013-04-01 09:04:00,40.1,38.3,30.18,NNW,346,10.0,10.0,13,0.00,,,0.00,meteohub,2013-04-01 14:04:00,
2013-04-01 09:09:00,39.9,38.3,30.18,NE,35,6.0,8.0,13,0.00,,,0.00,meteohub,2013-04-01 14:09:00,
2013-04-01 09:14:00,39.9,38.3,30.18,North,10,5.0,11.0,13,0.00,,,0.00,meteohub,2013-04-01 14:14:00,
2013-04-01 09:19:00,40.3,38.3,30.18,NNE,20,4.0,11.0,13,0.00,,,0.00,meteohub,2013-04-01 14:19:00,
2013-04-01 09:24:00,40.3,38.3,30.18,NNE,21,5.0,8.0,13,0.00,,,0.00,meteohub,2013-04-01 14:24:00,
2013-04-01 09:30:00,41.0,38.3,30.18,North,0,5.0,9.0,13,0.00,,,0.00,meteohub,2013-04-01 14:30:00,
2013-04-01 09:35:00,41.2,38.1,30.18,NNW,328,7.0,9.0,13,0.00,,,0.00,meteohub,2013-04-01 14:35:00,
2013-04-01 09:40:00,40.8,38.1,30.18,NNW,327,4.0,9.0,13,0.00,,,0.00,meteohub,2013-04-01 14:40:00,
2013-04-01 09:46:00,40.6,38.3,30.18,North,357,6.0,8.0,13,0.00,,,0.00,meteohub,2013-04-01 14:46:00,
2013-04-01 09:51:00,40.6,38.3,30.18,NNE,16,8.0,10.0,13,0.00,,,0.00,meteohub,2013-04-01 14:51:00,
2013-04-01 09:57:00,40.8,38.3,30.18,NNW,330,3.0,11.0,13,0.00,,,0.00,meteohub,2013-04-01 14:57:00,
2013-04-01 10:02:00,41.2,38.3,30.18,North,0,6.0,11.0,13,0.00,,,0.00,meteohub,2013-04-01 15:02:00,
2013-04-01 10:07:00,41.5,38.3,30.18,NNE,32,6.0,11.0,13,0.00,,,0.00,meteohub,2013-04-01 15:07:00,
2013-04-01 10:12:00,41.7,38.3,30.18,West,277,6.0,8.0,13,0.00,,,0.00,meteohub,2013-04-01 15:12:00,
2013-04-01 10:17:00,42.3,38.3,30.18,NNE,22,5.0,8.0,13,0.00,,,0.00,meteohub,2013-04-01 15:17:00,
2013-04-01 10:22:00,42.4,38.1,30.18,North,357,3.0,10.0,13,0.00,,,0.00,meteohub,2013-04-01 15:22:00,
2013-04-01 10:27:00,42.8,38.1,30.18,NNE,19,5.0,10.0,13,0.00,,,0.00,meteohub,2013-04-01 15:27:00,
2013-04-01 10:32:00,42.8,38.1,30.18,NNE,29,6.0,10.0,13,0.00,,,0.00,meteohub,2013-04-01 15:32:00,
2013-04-01 10:38:00,42.8,38.1,30.18,North,0,8.0,9.0,13,0.00,,,0.00,meteohub,2013-04-01 15:38:00,
2013-04-01 10:43:00,43.2,38.1,30.18,NNW,333,4.0,10.0,13,0.00,,,0.00,meteohub,2013-04-01 15:43:00,
2013-04-01 10:48:00,43.3,38.1,30.18,WNW,302,5.0,11.0,13,0.00,,,0.00,meteohub,2013-04-01 15:48:00,
2013-04-01 10:53:00,42.8,38.1,30.18,North,357,6.0,11.0,13,0.00,,,0.00,meteohub,2013-04-01 15:53:00,
2013-04-01 10:59:00,42.6,37.9,30.18,NW,311,5.0,11.0,13,0.00,,,0.00,meteohub,2013-04-01 15:59:00,
2013-04-01 11:04:00,42.8,37.9,30.18,SSW,199,8.0,9.0,13,0.00,,,0.00,meteohub,2013-04-01 16:04:00,
2013-04-01 11:09:00,43.5,37.9,30.18,NNE,14,6.0,10.0,13,0.00,,,0.00,meteohub,2013-04-01 16:09:00,
2013-04-01 11:14:00,43.3,37.9,30.21,North,357,8.0,12.0,13,0.00,,,0.00,meteohub,2013-04-01 16:14:00,
2013-04-01 11:19:00,43.3,37.9,30.21,NNW,346,4.0,12.0,13,0.00,,,0.00,meteohub,2013-04-01 16:19:00,
2013-04-01 11:25:00,43.7,37.8,30.21,NW,312,8.0,10.0,13,0.00,,,0.00,meteohub,2013-04-01 16:25:00,
2013-04-01 11:30:00,43.9,37.8,30.21,North,0,4.0,11.0,13,0.00,,,0.00,meteohub,2013-04-01 16:30:00,
2013-04-01 11:35:00,44.2,37.8,30.21,North,349,5.0,11.0,13,0.00,,,0.00,meteohub,2013-04-01 16:35:00,
2013-04-01 11:40:00,45.0,37.8,30.21,NNE,15,4.0,9.0,12,0.00,,,0.00,meteohub,2013-04-01 16:40:00,
2013-04-01 11:45:00,45.0,37.8,30.18,NNW,333,4.0,8.0,12,0.00,,,0.00,meteohub,2013-04-01 16:45:00,
2013-04-01 11:50:00,45.5,37.8,30.18,NNW,330,6.0,8.0,12,0.00,,,0.00,meteohub,2013-04-01 16:50:00,
2013-04-01 11:56:00,46.0,37.8,30.18,North,7,6.0,8.0,12,0.00,,,0.00,meteohub,2013-04-01 16:56:00,
2013-04-01 12:01:00,46.0,37.6,30.21,North,0,8.0,10.0,12,0.00,,,0.00,meteohub,2013-04-01 17:01:00,
2013-04-01 12:06:00,46.6,37.6,30.21,West,271,8.0,10.0,12,0.00,,,0.00,meteohub,2013-04-01 17:06:00,
2013-04-01 12:12:00,46.8,37.8,30.18,NW,317,8.0,10.0,12,0.00,,,0.00,meteohub,2013-04-01 17:12:00,
2013-04-01 12:17:00,46.6,39.0,30.18,NW,312,4.0,8.0,12,0.00,,,0.00,meteohub,2013-04-01 17:17:00,
2013-04-01 12:22:00,46.6,38.7,30.18,NNW,339,6.0,8.0,12,0.00,,,0.00,meteohub,2013-04-01 17:22:00,
2013-04-01 12:27:00,46.2,38.7,30.18,NW,311,4.0,11.0,12,0.00,,,0.00,meteohub,2013-04-01 17:27:00,
2013-04-01 12:32:00,46.0,38.3,30.18,NW,313,6.0,11.0,12,0.00,,,0.00,meteohub,2013-04-01 17:32:00,
2013-04-01 12:37:00,46.8,38.3,30.18,North,0,6.0,12.0,12,0.00,,,0.00,meteohub,2013-04-01 17:37:00,
2013-04-01 12:42:00,47.3,38.8,30.18,NNW,337,8.0,12.0,12,0.00,,,0.00,meteohub,2013-04-01 17:42:00,
2013-04-01 12:48:00,47.5,38.7,30.18,NNE,15,8.0,12.0,12,0.00,,,0.00,meteohub,2013-04-01 17:48:00,
2013-04-01 12:53:00,47.8,38.7,30.18,North,6,6.0,10.0,12,0.00,,,0.00,meteohub,2013-04-01 17:53:00,
2013-04-01 12:58:00,47.7,38.7,30.18,NE,40,6.0,10.0,12,0.00,,,0.00,meteohub,2013-04-01 17:58:00,
2013-04-01 13:03:00,47.5,38.7,30.18,NW,326,4.0,10.0,12,0.00,,,0.00,meteohub,2013-04-01 18:03:00,
2013-04-01 13:08:00,47.5,39.0,30.18,North,5,5.0,11.0,12,0.00,,,0.00,meteohub,2013-04-01 18:08:00,
2013-04-01 13:13:00,47.1,38.8,30.18,NNW,343,3.0,11.0,12,0.00,,,0.00,meteohub,2013-04-01 18:13:00,
2013-04-01 13:19:00,47.3,38.7,30.18,North,6,10.0,11.0,12,0.00,,,0.00,meteohub,2013-04-01 18:19:00,
2013-04-01 13:24:00,47.5,38.7,30.18,NNE,21,6.0,10.0,12,0.00,,,0.00,meteohub,2013-04-01 18:24:00,
2013-04-01 13:29:00,48.0,38.7,30.18,NNW,345,6.0,11.0,12,0.00,,,0.00,meteohub,2013-04-01 18:29:00,
2013-04-01 13:34:00,48.6,38.7,30.18,NNW,341,3.0,11.0,11,0.00,,,0.00,meteohub,2013-04-01 18:34:00,
2013-04-01 13:40:00,48.9,38.7,30.18,NNW,332,6.0,11.0,11,0.00,,,0.00,meteohub,2013-04-01 18:40:00,
2013-04-01 13:45:00,48.9,38.7,30.18,North,353,9.0,11.0,11,0.00,,,0.00,meteohub,2013-04-01 18:45:00,
2013-04-01 13:50:00,48.7,38.7,30.18,North,2,4.0,11.0,11,0.00,,,0.00,meteohub,2013-04-01 18:50:00,
2013-04-01 13:55:00,48.9,38.7,30.18,WNW,292,4.0,9.0,11,0.00,,,0.00,meteohub,2013-04-01 18:55:00,
2013-04-01 14:01:00,49.3,38.7,30.18,North,353,6.0,9.0,11,0.00,,,0.00,meteohub,2013-04-01 19:01:00,
2013-04-01 14:06:00,49.1,38.7,30.18,NNE,12,8.0,15.0,11,0.00,,,0.00,meteohub,2013-04-01 19:06:00,
2013-04-01 14:11:00,49.1,38.5,30.18,NNW,331,5.0,15.0,11,0.00,,,0.00,meteohub,2013-04-01 19:11:00,
2013-04-01 14:16:00,49.1,38.5,30.18,NW,312,6.0,15.0,11,0.00,,,0.00,meteohub,2013-04-01 19:16:00,
2013-04-01 14:22:00,49.3,38.5,30.18,NNE,28,6.0,11.0,11,0.00,,,0.00,meteohub,2013-04-01 19:22:00,
2013-04-01 14:27:00,49.6,38.5,30.18,NW,325,8.0,11.0,11,0.00,,,0.00,meteohub,2013-04-01 19:27:00,
2013-04-01 14:33:00,49.3,38.5,30.18,NW,324,5.0,11.0,11,0.00,,,0.00,meteohub,2013-04-01 19:33:00,
2013-04-01 14:38:00,49.8,38.5,30.18,NNE,24,6.0,11.0,11,0.00,,,0.00,meteohub,2013-04-01 19:38:00,
2013-04-01 14:43:00,49.5,38.5,30.18,North,10,6.0,11.0,11,0.00,,,0.00,meteohub,2013-04-01 19:43:00,
2013-04-01 14:48:00,49.5,38.5,30.18,NNW,339,3.0,10.0,11,0.00,,,0.00,meteohub,2013-04-01 19:48:00,
2013-04-01 14:53:00,49.6,38.5,30.18,NW,315,3.0,15.0,11,0.00,,,0.00,meteohub,2013-04-01 19:53:00,
2013-04-01 14:59:00,49.6,38.5,30.18,NW,314,6.0,15.0,11,0.00,,,0.00,meteohub,2013-04-01 19:59:00,
2013-04-01 15:04:00,49.6,38.5,30.18,NNE,15,8.0,10.0,11,0.00,,,0.00,meteohub,2013-04-01 20:04:00,
2013-04-01 15:09:00,49.5,38.5,30.18,North,5,6.0,10.0,11,0.00,,,0.00,meteohub,2013-04-01 20:09:00,
2013-04-01 15:14:00,49.3,38.7,30.18,NW,326,4.0,10.0,11,0.00,,,0.00,meteohub,2013-04-01 20:14:00,
2013-04-01 15:20:00,49.8,38.7,30.18,NW,317,3.0,11.0,11,0.00,,,0.00,meteohub,2013-04-01 20:20:00,
2013-04-01 15:25:00,49.8,38.7,30.18,NW,315,9.0,11.0,11,0.00,,,0.00,meteohub,2013-04-01 20:25:00,
2013-04-01 15:31:00,49.5,38.7,30.18,North,353,11.0,14.0,11,0.00,,,0.00,meteohub,2013-04-01 20:31:00,
2013-04-01 15:36:00,49.6,38.7,30.18,NNE,18,9.0,14.0,11,0.00,,,0.00,meteohub,2013-04-01 20:36:00,
2013-04-01 15:42:00,49.6,38.7,30.18,North,353,9.0,14.0,11,0.00,,,0.00,meteohub,2013-04-01 20:42:00,
2013-04-01 15:47:00,49.5,38.7,30.18,NE,53,6.0,12.0,11,0.00,,,0.00,meteohub,2013-04-01 20:47:00,
2013-04-01 15:52:00,49.5,38.7,30.18,NW,311,8.0,12.0,11,0.00,,,0.00,meteohub,2013-04-01 20:52:00,
2013-04-01 15:57:00,49.5,38.7,30.18,NNE,19,13.0,13.0,11,0.00,,,0.00,meteohub,2013-04-01 20:57:00,
2013-04-01 16:03:00,49.5,38.8,30.18,NNE,15,6.0,13.0,11,0.00,,,0.00,meteohub,2013-04-01 21:03:00,
2013-04-01 16:08:00,49.6,38.8,30.18,North,357,4.0,13.0,11,0.00,,,0.00,meteohub,2013-04-01 21:08:00,
2013-04-01 16:13:00,49.6,38.8,30.18,NNW,329,4.0,13.0,11,0.00,,,0.00,meteohub,2013-04-01 21:13:00,
2013-04-01 16:18:00,49.8,38.8,30.18,NW,325,4.0,11.0,11,0.00,,,0.00,meteohub,2013-04-01 21:18:00,
2013-04-01 16:23:00,49.5,38.8,30.18,North,9,6.0,11.0,11,0.00,,,0.00,meteohub,2013-04-01 21:23:00,
2013-04-01 16:29:00,49.3,38.8,30.18,North,349,6.0,13.0,11,0.00,,,0.00,meteohub,2013-04-01 21:29:00,
2013-04-01 16:34:00,49.6,38.8,30.18,North,0,3.0,13.0,11,0.00,,,0.00,meteohub,2013-04-01 21:34:00,
2013-04-01 16:39:00,50.2,38.8,30.18,North,0,8.0,13.0,11,0.00,,,0.00,meteohub,2013-04-01 21:39:00,
2013-04-01 16:44:00,49.8,38.8,30.18,North,11,5.0,10.0,11,0.00,,,0.00,meteohub,2013-04-01 21:44:00,
2013-04-01 16:50:00,49.6,38.8,30.18,NNE,16,5.0,11.0,11,0.00,,,0.00,meteohub,2013-04-01 21:50:00,
2013-04-01 16:55:00,49.3,38.8,30.18,North,0,6.0,13.0,11,0.00,,,0.00,meteohub,2013-04-01 21:55:00,
2013-04-01 17:00:00,49.3,38.8,30.18,NNE,22,5.0,13.0,11,0.00,,,0.00,meteohub,2013-04-01 22:00:00,
2013-04-01 17:06:00,49.5,39.0,30.18,North,353,8.0,13.0,11,0.00,,,0.00,meteohub,2013-04-01 22:06:00,
2013-04-01 17:12:00,49.5,39.0,30.18,NNE,14,8.0,11.0,11,0.00,,,0.00,meteohub,2013-04-01 22:12:00,
2013-04-01 17:17:00,49.3,39.0,30.18,NNW,331,8.0,11.0,11,0.00,,,0.00,meteohub,2013-04-01 22:17:00,
2013-04-01 17:22:00,49.3,39.0,30.18,NW,311,4.0,11.0,11,0.00,,,0.00,meteohub,2013-04-01 22:22:00,
2013-04-01 17:28:00,49.5,39.0,30.18,WNW,290,5.0,11.0,11,0.00,,,0.00,meteohub,2013-04-01 22:28:00,
2013-04-01 17:33:00,49.5,38.8,30.18,NE,35,5.0,9.0,11,0.00,,,0.00,meteohub,2013-04-01 22:33:00,
2013-04-01 17:38:00,49.3,38.8,30.18,NNW,329,6.0,12.0,11,0.00,,,0.00,meteohub,2013-04-01 22:38:00,
2013-04-01 17:43:00,49.1,38.8,30.18,NNW,344,5.0,12.0,11,0.00,,,0.00,meteohub,2013-04-01 22:43:00,
2013-04-01 17:49:00,49.1,38.1,30.18,North,6,6.0,11.0,11,0.00,,,0.00,meteohub,2013-04-01 22:49:00,
2013-04-01 17:54:00,48.7,38.1,30.18,North,7,5.0,11.0,11,0.00,,,0.00,meteohub,2013-04-01 22:54:00,
2013-04-01 17:59:00,48.7,38.1,30.18,NW,323,8.0,10.0,11,0.00,,,0.00,meteohub,2013-04-01 22:59:00,
2013-04-01 18:05:00,48.6,38.1,30.18,NNE,26,3.0,10.0,11,0.00,,,0.00,meteohub,2013-04-01 23:05:00,
2013-04-01 18:10:00,48.4,38.1,30.18,NNW,331,6.0,8.0,11,0.00,,,0.00,meteohub,2013-04-01 23:10:00,
2013-04-01 18:15:00,48.2,38.1,30.18,North,353,6.0,8.0,11,0.00,,,0.00,meteohub,2013-04-01 23:15:00,
2013-04-01 18:20:00,47.7,38.1,30.18,NNE,23,4.0,8.0,12,0.00,,,0.00,meteohub,2013-04-01 23:20:00,
2013-04-01 18:25:00,47.3,38.1,30.18,North,8,4.0,8.0,12,0.00,,,0.00,meteohub,2013-04-01 23:25:00,
2013-04-01 18:31:00,47.1,38.1,30.18,North,350,5.0,9.0,12,0.00,,,0.00,meteohub,2013-04-01 23:31:00,
2013-04-01 18:36:00,46.9,38.5,30.18,North,353,8.0,10.0,12,0.00,,,0.00,meteohub,2013-04-01 23:36:00,
2013-04-01 18:41:00,46.8,38.5,30.18,NNW,342,5.0,10.0,12,0.00,,,0.00,meteohub,2013-04-01 23:41:00,
2013-04-01 18:46:00,46.6,38.3,30.18,NNW,342,4.0,10.0,12,0.00,,,0.00,meteohub,2013-04-01 23:46:00,
2013-04-01 18:51:00,46.4,38.1,30.18,North,353,4.0,8.0,12,0.00,,,0.00,meteohub,2013-04-01 23:51:00,
2013-04-01 18:57:00,46.2,38.1,30.18,NNW,346,4.0,6.0,12,0.00,,,0.00,meteohub,2013-04-01 23:57:00,
2013-04-01 19:02:00,46.2,38.1,30.18,North,9,4.0,6.0,12,0.00,,,0.00,meteohub,2013-04-02 00:02:00,
2013-04-01 19:07:00,45.9,38.7,30.18,NNW,344,0.0,6.0,12,0.00,,,0.00,meteohub,2013-04-02 00:07:00,
2013-04-01 19:12:00,45.5,38.7,30.18,North,350,5.0,6.0,12,0.00,,,0.00,meteohub,2013-04-02 00:12:00,
2013-04-01 19:17:00,45.0,38.7,30.18,North,7,5.0,6.0,12,0.00,,,0.00,meteohub,2013-04-02 00:17:00,
2013-04-01 19:23:00,44.8,38.7,30.18,North,357,4.0,6.0,12,0.00,,,0.00,meteohub,2013-04-02 00:23:00,
2013-04-01 19:28:00,44.6,38.8,30.18,North,7,4.0,6.0,12,0.00,,,0.00,meteohub,2013-04-02 00:28:00,
2013-04-01 19:33:00,44.2,39.0,30.18,North,353,5.0,6.0,13,0.00,,,0.00,meteohub,2013-04-02 00:33:00,
2013-04-01 19:38:00,43.9,38.8,30.18,North,3,3.0,6.0,13,0.00,,,0.00,meteohub,2013-04-02 00:38:00,
2013-04-01 19:43:00,43.7,38.7,30.18,NNW,343,3.0,6.0,13,0.00,,,0.00,meteohub,2013-04-02 00:43:00,
2013-04-01 19:49:00,43.5,38.7,30.18,NNW,345,3.0,6.0,13,0.00,,,0.00,meteohub,2013-04-02 00:49:00,
2013-04-01 19:54:00,43.3,38.7,30.18,North,0,3.0,6.0,13,0.00,,,0.00,meteohub,2013-04-02 00:54:00,
2013-04-01 19:59:00,43.2,38.5,30.18,NNE,12,3.0,5.0,13,0.00,,,0.00,meteohub,2013-04-02 00:59:00,
2013-04-01 20:04:00,43.0,38.5,30.18,North,6,4.0,6.0,13,0.00,,,0.00,meteohub,2013-04-02 01:04:00,
2013-04-01 20:10:00,42.8,38.5,30.18,North,353,3.0,6.0,13,0.00,,,0.00,meteohub,2013-04-02 01:10:00,
2013-04-01 20:15:00,42.3,38.3,30.18,NNE,14,3.0,6.0,13,0.00,,,0.00,meteohub,2013-04-02 01:15:00,
2013-04-01 20:20:00,42.4,38.3,30.18,North,353,3.0,5.0,13,0.00,,,0.00,meteohub,2013-04-02 01:20:00,
2013-04-01 20:25:00,42.3,38.7,30.18,NNE,23,4.0,5.0,13,0.00,,,0.00,meteohub,2013-04-02 01:25:00,
2013-04-01 20:31:00,42.3,38.7,30.18,NNW,346,4.0,6.0,13,0.00,,,0.00,meteohub,2013-04-02 01:31:00,
2013-04-01 20:36:00,42.1,38.7,30.18,NNE,18,4.0,6.0,13,0.00,,,0.00,meteohub,2013-04-02 01:36:00,
2013-04-01 20:41:00,42.1,38.5,30.18,North,0,4.0,6.0,13,0.00,,,0.00,meteohub,2013-04-02 01:41:00,
2013-04-01 20:46:00,42.1,38.3,30.18,North,7,3.0,6.0,13,0.00,,,0.00,meteohub,2013-04-02 01:46:00,
2013-04-01 20:52:00,41.9,38.3,30.18,North,0,3.0,6.0,13,0.00,,,0.00,meteohub,2013-04-02 01:52:00,
2013-04-01 20:57:00,41.7,38.1,30.21,North,0,3.0,6.0,13,0.00,,,0.00,meteohub,2013-04-02 01:57:00,
2013-04-01 21:02:00,41.5,38.1,30.21,NNW,338,3.0,5.0,13,0.00,,,0.00,meteohub,2013-04-02 02:02:00,
2013-04-01 21:07:00,41.4,38.1,30.21,NNW,346,0.0,5.0,13,0.00,,,0.00,meteohub,2013-04-02 02:07:00,
2013-04-01 21:13:00,41.2,37.9,30.21,North,9,0.0,4.0,13,0.00,,,0.00,meteohub,2013-04-02 02:13:00,
2013-04-01 21:18:00,41.0,38.3,30.21,North,357,3.0,4.0,13,0.00,,,0.00,meteohub,2013-04-02 02:18:00,
2013-04-01 21:23:00,40.8,38.3,30.21,North,357,0.0,4.0,13,0.00,,,0.00,meteohub,2013-04-02 02:23:00,
2013-04-01 21:28:00,40.5,38.3,30.21,North,357,0.0,3.0,13,0.00,,,0.00,meteohub,2013-04-02 02:28:00,
2013-04-01 21:33:00,39.9,38.1,30.21,North,357,0.0,3.0,13,0.00,,,0.00,meteohub,2013-04-02 02:33:00,
2013-04-01 21:39:00,39.4,37.9,30.21,North,357,0.0,0.0,13,0.00,,,0.00,meteohub,2013-04-02 02:39:00,
2013-04-01 21:44:00,39.2,38.1,30.21,North,353,3.0,0.0,13,0.00,,,0.00,meteohub,2013-04-02 02:44:00,
2013-04-01 21:50:00,39.4,38.7,30.21,North,353,2.0,4.0,13,0.00,,,0.00,meteohub,2013-04-02 02:50:00,
2013-04-01 21:55:00,39.6,38.7,30.21,North,353,0.0,4.0,13,0.00,,,0.00,meteohub,2013-04-02 02:55:00,
2013-04-01 22:00:00,39.6,38.5,30.21,NNW,333,2.0,3.0,13,0.00,,,0.00,meteohub,2013-04-02 03:00:00,
2013-04-01 22:05:00,39.7,38.3,30.21,NNW,333,2.0,3.0,13,0.00,,,0.00,meteohub,2013-04-02 03:05:00,
2013-04-01 22:10:00,39.9,38.1,30.21,NNW,338,2.0,4.0,13,0.00,,,0.00,meteohub,2013-04-02 03:10:00,
2013-04-01 22:16:00,39.9,38.1,30.21,North,0,0.0,4.0,13,0.00,,,0.00,meteohub,2013-04-02 03:16:00,
2013-04-01 22:21:00,39.7,38.7,30.21,North,0,0.0,4.0,13,0.00,,,0.00,meteohub,2013-04-02 03:21:00,
2013-04-01 22:26:00,39.6,38.7,30.21,North,0,0.0,4.0,13,0.00,,,0.00,meteohub,2013-04-02 03:26:00,
2013-04-01 22:32:00,39.2,38.5,30.21,North,0,0.0,3.0,13,0.00,,,0.00,meteohub,2013-04-02 03:32:00,
2013-04-01 22:37:00,38.7,38.3,30.21,North,0,0.0,0.0,14,0.00,,,0.00,meteohub,2013-04-02 03:37:00,
2013-04-01 22:42:00,38.3,38.3,30.21,North,0,0.0,0.0,14,0.00,,,0.00,meteohub,2013-04-02 03:42:00,
2013-04-01 22:48:00,38.3,38.3,30.21,North,0,0.0,0.0,14,0.00,,,0.00,meteohub,2013-04-02 03:48:00,
2013-04-01 22:53:00,38.5,38.8,30.21,North,0,0.0,0.0,14,0.00,,,0.00,meteohub,2013-04-02 03:53:00,
2013-04-01 22:58:00,38.5,38.1,30.21,North,0,0.0,0.0,14,0.00,,,0.00,meteohub,2013-04-02 03:58:00,
2013-04-01 23:00:00,38.5,38.1,30.21,North,0,0.0,0.0,14,0.00,,,0.00,meteohub,2013-04-02 04:00:00,
2013-04-01 23:01:00,38.5,38.1,30.21,North,0,0.0,0.0,14,0.00,,,0.00,meteohub,2013-04-02 04:01:00,
2013-04-01 23:02:00,38.5,37.9,30.21,North,0,0.0,0.0,14,0.00,,,0.00,meteohub,2013-04-02 04:02:00,
2013-04-01 23:07:00,38.3,37.9,30.21,North,0,0.0,0.0,14,0.00,,,0.00,meteohub,2013-04-02 04:07:00,
2013-04-01 23:12:00,37.4,38.5,30.21,North,0,0.0,0.0,14,0.00,,,0.00,meteohub,2013-04-02 04:12:00,
2013-04-01 23:17:00,36.7,37.9,30.21,North,0,0.0,0.0,14,0.00,,,0.00,meteohub,2013-04-02 04:17:00,
2013-04-01 23:22:00,36.3,38.7,30.21,North,0,0.0,0.0,14,0.00,,,0.00,meteohub,2013-04-02 04:22:00,
2013-04-01 23:27:00,35.4,38.3,30.21,North,0,0.0,0.0,15,0.00,,,0.00,meteohub,2013-04-02 04:27:00,
2013-04-01 23:33:00,34.9,38.1,30.21,North,0,0.0,0.0,15,0.00,,,0.00,meteohub,2013-04-02 04:33:00,
2013-04-01 23:38:00,35.1,37.9,30.21,North,0,0.0,0.0,15,0.00,,,0.00,meteohub,2013-04-02 04:38:00,
2013-04-01 23:43:00,35.8,38.1,30.24,NNW,344,0.0,0.0,14,0.00,,,0.00,meteohub,2013-04-02 04:43:00,
2013-04-01 23:49:00,36.1,38.8,30.24,NNW,344,0.0,0.0,14,0.00,,,0.00,meteohub,2013-04-02 04:49:00,
2013-04-01 23:54:00,36.5,38.7,30.24,North,0,0.0,0.0,14,0.00,,,0.00,meteohub,2013-04-02 04:54:00,
2013-04-01 23:59:00,36.9,38.5,30.24,WNW,302,0.0,3.0,14,0.00,,,0.00,meteohub,2013-04-02 04:59:00,